Location: Izdebno
(52.6670°N, 16.2170°E)
Time: 03:34:07
(UTC+02:00)

Transit 2A - Pass Details

Date: 26 February 2024
Orbit: 596 x 956 km, 66.7° (Epoch: 21 April)

Event Time Altitude Azimuth Distance (km) Brightness Sun altitude
Rises 18:30:58 0° 175° (S) 2,852 8.9 -10.4°
Reaches altitude 10° 18:33:41 10° 158° (SSE) 1,936 7.9 -10.8°
Maximum altitude 18:36:48 20° 112° (ESE) 1,410 6.8 -11.3°
Enters shadow 18:38:20 17° 85° (E) 1,557 7.0 -11.5°
Drops below altitude 10° 18:39:57 10° 65° (ENE) 1,952 - -11.7°
Sets 18:42:42 0° 49° (NE) 2,885 - -12.2°
